Regional Weather Roundup
Issued by NWS

Home | Current Version | Previous Version | Text Only | Print | Product List | Glossary On
Versions: 1 2 3 4 5 6 7 8 9 10 11 12 13 14 15 16 17 18 19 20 21 22 23 24 25 26 27 28 29 30 31 32 33 34 35 36 37 38 39 40 41 42 43 44 45 46 47 48 49 50
000
ASUS46 KSEW 221510
RWRWA

WASHINGTON REGIONAL WEATHER ROUNDUP
NATIONAL WEATHER SERVICE SEATTLE WA
700 AM PST MON DEC 22 2014

NOTE:"FAIR" INDICATES FEW OR NO CLOUDS BELOW 12,000 FEET WITH NO
SIGNIFICANT WEATHER AND/OR OBSTRUCTIONS TO VISIBILITY.

WAZ505-507>509-221600-
SEATTLE, TACOMA, EVERETT, AND VICINITY

CITY           SKY/WX    TMP DP  RH WIND       PRES   REMARKS
EVERETT        PTCLDY    45  36  70 S3        30.29R
BOEING FIELD   PTCLDY    44  39  82 CALM      30.29R
RENTON         PTCLDY    41  40  96 S5        30.29R
SEATAC AIRPORT PTCLDY    44  37  76 SE5       30.29R
JBLM-MCCHORD   CLOUDY    39  39 100 SE6       30.30R FOG
PUYALLUP       NOT AVBL
JBLM-FT LEWIS  CLEAR     39  39  99 CALM      30.29R FOG
TACOMA NARROWS MOCLDY    46  43  89 S5        30.29R
$$

WAZ001-503-506-510-514-515-221600-
NORTH INTERIOR

CITY           SKY/WX    TMP DP  RH WIND       PRES   REMARKS
BELLINGHAM     CLEAR     39  36  89 CALM      30.25R
FRIDAY HARBOR  CLEAR     35  33  92 CALM      30.28R
EASTSOUND      CLEAR     39  37  93 S5        30.25R
PORT ANGELES   CLEAR     43  36  76 W15       30.28R
NAS WHIDBEY    PTCLDY    48  40  73 NW7       30.29R
BURLINGTON     CLEAR     37  37 100 CALM      30.28R
$$

WAZ020-022-039-040-504-511-512-221600-
SOUTHWEST INTERIOR

CITY           SKY/WX    TMP DP  RH WIND       PRES   REMARKS
SHELTON        PTCLDY    39  38  96 CALM      30.26R FOG
OLYMPIA        MOCLDY    43  39  86 E8        30.29R
CHEHALIS       PTSUNNY   45  45 100 SW5       30.31R
KELSO          CLOUDY    45  39  81 CALM      30.34R
VANCOUVER      FOG       44  43  96 CALM      30.31R VSB 3/4
SCAPPOOSE, OR  CLOUDY    44  43  96 CALM      30.31R FOG
PORTLAND, OR   CLOUDY    47  46  97 E3        30.32R
$$

WAZ021-516-517-221600-
WASHINGTON COAST

CITY           SKY/WX    TMP DP  RH WIND       PRES   REMARKS
FORKS          FOG       37  37 100 CALM      30.31R VSB 1/4
HOQUIAM        PTCLDY    42  42 100 CALM      30.30R
ASTORIA, OR    MOCLDY    45  44  97 CALM      30.31R FOG
$$

WAZ019-023-024-040-518-519-221600-
CASCADE MOUNTAINS AND COLUMBIA GORGE

CITY           SKY/WX    TMP DP  RH WIND       PRES   REMARKS
TROUTDALE, OR  CLOUDY    48  46  93 CALM      30.31R
THE DALLES, OR PTCLDY    49  40  71 W9        30.22R
$$

WAZ026-027-041>044-520-521-221600-
EAST SLOPES

CITY           SKY/WX    TMP DP  RH WIND       PRES   REMARKS
OMAK           CLEAR     28  26  92 NW3       30.13R
WENATCHEE      CLEAR     43  32  65 N9        30.16R
ELLENSBURG     CLEAR     42  33  70 NW22      30.15R
YAKIMA         CLEAR     41  34  75 NW9       30.18R
$$

WAZ028-034-035-221600-
COLUMBIA BASIN

CITY           SKY/WX    TMP DP  RH WIND       PRES   REMARKS
EPHRATA        CLEAR     46  25  43 NW18G32   30.09R
MOSES LAKE     CLEAR     38  30  73 S3        30.12R
PASCO          PTCLDY    36  36 100 NW5       30.18R
HERMISTON, OR  MOCLDY    47  41  80 W10       30.17R
$$

WAZ036>038-221600-
NORTHEAST WASHINGTON

CITY           SKY/WX    TMP DP  RH WIND       PRES   REMARKS
SPOKANE GEIGER PTCLDY    33  29  85 SW12      30.04R WCI  24
SPOKANE FELTS  MOCLDY    33  30  88 CALM      30.06R
FAIRCHILD AFB  CLEAR     32  29  89 W10       30.05R WCI  24
COEURDALENE,ID CLOUDY    34  28  80 S5        30.03R
DEER PARK      CLEAR     30  28  92 S6        30.04R
$$

WAZ029>033-221600-
SOUTHEAST WASHINGTON

CITY           SKY/WX    TMP DP  RH WIND       PRES   REMARKS
PULLMAN        PTCLDY    38  36  92 W12       30.08R
LEWISTON, ID   CLOUDY    47  37  68 W13       30.09R
WALLA WALLA    PTCLDY    43  39  86 S9        30.16R
PENDLETON, OR  CLOUDY    44  39  82 W22       30.15R
$$


USA.gov is the U.S. government's official web portal to all federal, state and local government web resources and services.